Location: Bannatyne
(13.0833°N, 59.5333°W)
Time: 02:47:00
(UTC+00:00)

Ariane H10 - Pass Details

Date: 18 October 2019
Orbit: 529 x 35434 km, 8.1° (Epoch: 17 November)

Event Time Altitude Azimuth Distance (km) Brightness Sun altitude
Rises 22:09:03 0° 257° (WSW) 12,821 11.1 -8.4°
Reaches altitude 10° 22:24:56 10° 251° (WSW) 7,171 8.9 -12.2°
Maximum altitude 22:38:37 37° 187° (S) 1,679 4.3 -15.5°
Enters shadow 22:41:44 17° 126° (SE) 1,833 4.0 -16.3°
